Weather in Verkhneye

Russia / Kurgan Oblast     54°53′59″N   64°16′22″E
В апреле 2022 года жителям России запретили посещать сайт meteo.paraplan.net по решению Генеральной прокуратуры. Аудитория сайта уменьшилась в 10 раз. Владельцы сайта не видят смысла в поддержке погодного сервера в таких условиях. Сайт будет закрыт в октябре.
temp.,
°C
wind,
m/s
gust,
m/s
humid.,
%
clouds,
%
prec.,
mm/h
press.,
hPa
HPBL,
m
4 october, tue
tue423:00+6ssw4945100 0.0 1031169
02:00+5ssw4845100 0.0 1032140
05:00+4sw4945100 0.0 1033147
08:00+6sw4943100 0.0 1034208
11:00+9sw4842100 0.0 1034252
14:00+14sw563163 0.0 1034574
17:00+12sw3740100 0.0 1034155
20:00+9sw46456 0.0 103588
5 october, wed
wed523:00+8sw464124 0.0 103585
02:00+7sw47395 0.0 1036101
05:00+5sw47405 0.0 1036109
08:00+5sw494374 0.0 1036177
11:00+11sw61030100 0.0 1035457
14:00+13sw6926100 0.0 1034720
17:00+12sw4831100 0.0 1033225
20:00+9ssw4936100 0.0 1033158
6 october, thu
thu623:00+8sw31036100 0.0 1032209
02:00+9sw3836100 0.0 1031160
05:00+8ssw3537100 0.0 103098
08:00+8s4837100 0.0 1029163
11:00+11s5928100 0.0 1027353
14:00+14s6923100 0.0 1025635
17:00+13s51024100 0.0 1023308
20:00+10s41329100 0.0 1023239
7 october, fri
fri723:00+10s51229100 0.0 1021237
02:00+8ssw41033100 0.0 1020155
05:00+8ssw343495 0.0 101960
08:00+9sw2437100 0.0 101888
11:00+11sw51255100 0.0 1017948
14:00+11sw41067100 0.0 1016702
17:00+11sw41071100 0.0 1014769
20:00+10sw497499 0.0 1013386
8 october, sat
sat823:00+8sw358191 0.0 1012143
02:00+9wsw3584100 0.0 1011165
05:00+8w3687100 0.2 1010302
08:00+7nw4780100 0.1 1010390
11:00+10w465890 0.1 10101277
14:00+9w6767100 0.1 10101219
17:00+7w5882100 0.2 10101011
20:00+8wnw6107585 0.2 1012913